Temp
63 63 63 63 62 62 62 62 61 61 61 61 61 61 61 60 60 60 60 60 60 60 60 60 61 60 58 51 53 65 64 63 63 60 56 53 50 49 44 48 49 46 49 53 55 56 55
63 62 62 62 62 62 62 61 61 61 61 61 61 60 60 60 59 59 59 60 60 60 60 60 60 60 55 44 63 65 64 61 60 58 56 54 51 53 46 46 44 49 50 51 53 53 54
62 62 62 62 62 61 61 61 61 61 61 61 61 60 59 59 59 59 59 60 60 60 60 60 61 60 52 52 64 65 62 60 62 59 53 57 56 48 48 42 50 47 41 46 48 51 49
62 62 62 61 61 61 61 61 60 61 61 60 59 59 59 59 58 59 59 59 59 59 60 60 61 58 46 62 66 61 62 59 62 61 57 58 56 48 44 46 42 39 41 33 46 50 52
62 62 61 61 61 61 61 60 60 60 60 60 59 58 58 58 58 58 58 58 59 59 59 60 56 53 47 60 55 61 61 54 57 58 58 56 49 40 39 35 32 38 30 36 42 53 51
61 61 61 61 61 61 60 60 60 60 60 59 58 58 58 58 57 58 58 58 59 58 58 60 58 46 54 51 56 57 60 56 51 52 49 46 39 34 35 33 26 31 32 37 38 47 50
60 60 60 60 60 60 60 60 60 60 60 59 58 58 58 58 57 57 57 59 53 49 52 49 51 51 52 56 57 53 57 53 51 48 40 43 35 30 35 39 38 38 36 35 42 45 39
60 60 60 60 60 59 60 60 60 60 59 58 58 57 57 57 57 57 58 54 53 52 44 54 53 53 56 55 48 51 56 45 44 38 45 40 32 43 45 44 41 39 36 36 42 47 37
60 60 59 59 59 59 59 59 59 59 59 58 57 57 57 57 57 57 57 55 58 57 45 49 50 49 51 51 49 50 52 48 39 37 39 38 44 48 41 37 34 37 31 35 36 37 37
59 59 59 59 59 59 59 59 59 59 58 57 57 57 57 56 53 59 55 57 59 58 38 43 43 47 49 50 43 55 54 47 39 37 44 44 49 44 37 32 34 30 42 38 35 31 30
59 59 59 58 59 59 59 59 58 58 58 57 57 57 56 54 56 55 54 59 59 54 29 42 42 52 50 45 47 47 54 45 39 43 42 40 46 43 34 34 33 33 42 40 36 33 32
59 59 58 58 58 58 58 58 58 58 57 57 56 56 56 57 58 57 59 58 55 36 29 37 43 42 41 44 46 45 45 48 48 39 43 42 51 48 46 45 35 38 36 36 37 35 29
58 58 58 58 58 58 58 58 58 58 57 57 56 55 55 58 53 58 58 53 34 30 47 36 40 44 42 39 43 43 38 36 34 31 36 45 49 51 52 45 40 34 34 30 29 29 31
58 58 58 58 58 58 58 57 58 57 57 56 55 53 54 57 59 57 54 42 28 38 42 47 44 45 39 43 42 43 41 36 46 39 35 35 34 47 53 48 44 45 42 33 25 30 35
58 58 58 58 58 58 58 57 57 57 56 55 54 59 56 55 56 56 47 32 36 39 42 41 46 40 45 41 38 41 42 40 38 41 34 35 39 52 51 52 51 46 42 46 38 42 36
58 58 58 58 58 58 57 57 57 57 56 55 54 54 52 53 55 51 40 36 41 44 43 43 37 42 35 37 36 37 42 43 38 41 43 39 31 49 49 52 52 47 51 39 40 29 30
59 59 58 58 57 57 57 57 57 56 56 54 52 48 50 54 52 46 33 40 42 45 43 39 38 36 37 34 33 35 36 42 43 42 43 39 34 41 48 45 45 45 44 45 44 39 32
58 59 59 58 57 57 56 56 56 56 55 52 50 42 50 53 40 39 35 41 42 43 43 41 40 39 36 39 34 33 36 41 46 43 38 41 35 31 40 51 50 47 45 47 39 33 40
57 57 57 57 57 56 56 56 56 56 54 53 41 45 50 49 32 34 42 40 42 41 41 40 39 41 41 37 33 40 41 46 45 41 36 37 34 30 37 43 46 43 47 47 48 45 37
55 55 56 55 55 56 56 56 55 55 54 47 38 35 43 45 43 37 38 39 38 43 41 42 40 41 38 35 40 36 38 43 44 44 43 38 34 33 30 34 40 37 42 46 44 38 41
54 54 55 55 55 55 55 56 55 55 53 46 38 35 33 33 33 33 34 33 33 34 40 40 38 37 36 30 37 36 41 41 45 42 41 36 29 36 38 41 40 39 38 41 40 43 39
53 53 54 53 54 54 53 53 53 54 52 44 37 34 32 32 31 32 33 32 32 35 36 33 32 36 35 30 34 31 37 38 35 41 36 36 29 33 30 38 39 35 39 41 41 43 44
52 52 52 52 52 52 52 53 53 53 51 43 38 38 36 34 31 30 33 34 34 39 39 42 40 36 34 37 41 43 44 43 40 34 32 31 30 28 25 37 35 29 37 40 41 46 46
52 52 52 52 52 52 52 52 52 52 51 45 41 39 33 32 31 31 33 36 35 39 34 38 41 36 42 44 43 42 39 39 39 38 39 30 29 29 25 29 20 40 47 43 42 45 49
52 53 53 53 53 52 52 52 52 52 52 47 41 39 35 32 34 33 33 33 36 39 34 35 41 45 45 38 30 29 31 29 31 35 32 32 29 26 23 25 32 37 38 36 36 36 42
53 53 53 52 53 53 53 52 52 52 52 50 47 45 38 32 34 38 35 34 32 33 33 35 40 42 40 32 30 24 24 28 28 29 32 30 30 26 25 20 20 34 39 43 41 30 41
52 52 52 52 52 52 52 52 52 52 52 50 47 48 40 32 40 40 34 32 34 33 31 31 31 32 36 30 26 25 25 30 25 26 24 25 24 21 22 22 28 38 41 43 27 27 39
51 52 52 52 52 52 52 52 52 52 52 49 47 48 42 35 38 41 41 34 35 33 30 31 30 28 28 25 27 28 26 29 26 31 27 26 24 22 23 21 19 40 41 32 33 36 38
51 52 52 52 52 52 52 52 52 52 51 51 43 48 47 37 37 45 45 46 43 39 33 32 32 30 32 29 29 30 26 28 28 25 30 24 30 27 27 28 37 41 38 36 39 38 41
MSLP
1021.92 1021.70 1021.45 1021.25 1021.13 1020.86 1020.49 1020.18 1019.83 1019.47 1019.17 1018.96 1018.78 1018.63 1018.43 1018.26 1018.18 1018.02 1018.01 1017.97 1017.93 1017.83 1017.90 1017.97 1017.94 1017.98 1017.97 1017.32 1015.83 1016.07 1016.34 1016.64 1016.74 1016.98 1016.82 1016.57 1016.43 1016.01 1015.41 1014.82 1014.51 1013.77 1012.72 1012.07 1011.30 1010.52 1010.15
1022.34 1022.03 1021.74 1021.44 1021.18 1021.00 1020.78 1020.42 1020.05 1019.64 1019.23 1018.93 1018.72 1018.58 1018.47 1018.28 1018.11 1017.96 1017.89 1017.93 1017.85 1017.81 1017.82 1017.83 1017.75 1017.96 1017.71 1016.49 1015.63 1015.85 1016.05 1016.55 1016.67 1016.68 1016.57 1016.67 1016.36 1016.09 1015.54 1014.99 1014.59 1013.77 1012.80 1011.53 1010.98 1010.46 1010.12
1022.53 1022.17 1021.85 1021.62 1021.26 1021.04 1020.78 1020.45 1020.12 1019.74 1019.30 1018.87 1018.55 1018.42 1018.31 1018.15 1018.04 1017.90 1017.69 1017.61 1017.72 1017.70 1017.54 1017.64 1017.58 1017.51 1016.95 1015.72 1015.42 1015.80 1016.15 1016.22 1016.19 1016.38 1016.27 1016.23 1016.40 1016.46 1015.93 1015.29 1014.40 1013.86 1012.91 1011.63 1010.53 1009.89 1009.47
1022.51 1022.22 1022.03 1021.68 1021.37 1021.09 1020.77 1020.42 1020.14 1019.76 1019.38 1018.94 1018.57 1018.29 1018.16 1017.96 1017.75 1017.69 1017.61 1017.53 1017.55 1017.60 1017.55 1017.45 1017.45 1017.21 1016.13 1015.31 1015.35 1015.74 1015.81 1015.86 1015.91 1016.02 1015.99 1016.15 1016.31 1016.22 1016.23 1015.86 1015.07 1014.02 1012.78 1011.07 1008.94 1008.65 1008.07
1022.45 1022.19 1021.96 1021.74 1021.45 1021.09 1020.79 1020.39 1020.10 1019.79 1019.40 1019.03 1018.61 1018.35 1018.10 1017.87 1017.68 1017.55 1017.52 1017.39 1017.36 1017.36 1017.42 1017.42 1017.46 1017.26 1015.56 1015.54 1015.46 1015.21 1015.54 1015.54 1015.48 1015.44 1015.47 1015.99 1016.49 1016.34 1016.21 1015.69 1014.72 1013.15 1011.47 1009.88 1007.70 1007.00 1006.89
1022.57 1022.19 1021.90 1021.75 1021.49 1021.11 1020.85 1020.47 1020.14 1019.82 1019.45 1019.12 1018.70 1018.43 1018.14 1017.77 1017.58 1017.48 1017.44 1017.31 1017.04 1017.22 1017.33 1017.26 1017.03 1017.31 1015.22 1014.67 1014.88 1015.10 1015.40 1015.43 1015.19 1015.06 1015.26 1015.85 1016.44 1015.83 1015.42 1015.04 1012.99 1011.83 1010.59 1009.11 1007.46 1006.45 1005.77
1022.64 1022.34 1021.98 1021.68 1021.41 1021.04 1020.74 1020.36 1020.13 1019.80 1019.47 1019.13 1018.79 1018.42 1018.05 1017.66 1017.51 1017.42 1017.37 1017.00 1017.02 1016.95 1016.69 1015.26 1014.71 1014.22 1014.37 1014.74 1015.17 1015.02 1015.03 1015.13 1015.02 1014.76 1014.45 1014.60 1014.55 1013.33 1013.55 1012.73 1012.20 1011.50 1010.21 1008.62 1006.61 1006.55 1006.08
1022.42 1022.16 1021.77 1021.46 1021.27 1021.10 1020.80 1020.46 1020.13 1019.85 1019.46 1019.10 1018.76 1018.26 1017.96 1017.73 1017.51 1017.45 1017.26 1016.55 1016.73 1017.15 1015.36 1014.14 1014.32 1014.36 1014.53 1014.79 1014.50 1014.50 1014.98 1014.95 1014.63 1014.09 1013.46 1013.40 1012.07 1011.00 1011.45 1011.21 1010.98 1010.60 1009.62 1007.32 1006.11 1005.90 1006.28
1022.37 1022.13 1021.91 1021.63 1021.36 1021.03 1020.68 1020.35 1020.05 1019.72 1019.37 1019.04 1018.65 1018.21 1017.97 1017.80 1017.55 1017.38 1016.81 1016.70 1016.87 1016.74 1015.52 1013.64 1013.94 1014.01 1014.16 1014.75 1013.76 1013.64 1014.36 1014.30 1014.50 1013.89 1013.19 1011.61 1009.19 1009.58 1010.48 1010.34 1010.42 1009.73 1009.00 1007.23 1006.94 1006.25 1004.95
1022.32 1022.13 1021.81 1021.62 1021.28 1021.01 1020.72 1020.39 1020.00 1019.68 1019.33 1018.90 1018.60 1018.25 1017.95 1017.77 1017.82 1016.96 1016.67 1017.12 1016.98 1016.75 1015.42 1013.67 1013.85 1014.02 1014.44 1014.25 1013.73 1013.40 1013.90 1014.19 1014.31 1013.27 1011.85 1010.25 1008.57 1008.50 1009.38 1009.57 1009.44 1008.89 1007.66 1007.33 1006.88 1006.24 1003.46
1022.31 1022.20 1021.97 1021.62 1021.18 1020.78 1020.48 1020.25 1019.92 1019.63 1019.41 1019.11 1018.60 1018.17 1017.80 1017.59 1017.19 1016.62 1017.22 1017.05 1016.91 1016.62 1015.08 1013.43 1013.80 1014.35 1014.00 1014.03 1013.46 1013.40 1013.66 1013.84 1013.12 1011.91 1011.69 1009.08 1007.59 1007.35 1008.13 1008.12 1007.97 1007.36 1006.97 1006.72 1005.90 1004.84 1003.98
1021.92 1021.45 1021.29 1021.24 1020.98 1020.69 1020.41 1020.10 1019.72 1019.46 1019.14 1018.82 1018.56 1018.25 1017.88 1017.34 1017.14 1017.22 1017.15 1017.06 1016.87 1016.00 1013.37 1012.57 1013.18 1013.52 1013.55 1013.22 1013.03 1013.35 1013.53 1013.75 1012.71 1011.73 1010.53 1008.34 1007.48 1006.96 1006.02 1006.15 1007.10 1006.98 1006.47 1005.92 1004.93 1003.94 1002.35
1021.31 1021.09 1020.95 1020.71 1020.40 1020.29 1020.23 1019.93 1019.60 1019.28 1019.00 1018.79 1018.45 1018.17 1017.86 1017.60 1017.04 1017.39 1017.23 1016.66 1016.33 1014.63 1012.07 1012.46 1012.18 1012.43 1012.57 1012.26 1012.03 1012.38 1012.75 1012.65 1012.15 1011.43 1009.00 1007.29 1005.18 1005.02 1004.94 1004.56 1005.63 1005.87 1005.15 1003.84 1003.22 1002.09 1000.33
1020.74 1020.66 1020.53 1020.23 1020.07 1019.88 1019.70 1019.54 1019.34 1019.05 1018.85 1018.56 1018.26 1018.07 1017.97 1017.76 1017.53 1017.34 1016.99 1016.36 1015.30 1012.71 1012.04 1011.92 1011.79 1011.57 1011.61 1011.40 1011.48 1011.48 1011.55 1011.36 1010.28 1010.79 1009.81 1007.49 1004.94 1004.22 1003.84 1003.81 1003.34 1003.21 1003.14 1002.53 1001.53 1000.17 999.24
1020.19 1020.07 1019.87 1019.73 1019.69 1019.53 1019.33 1019.19 1019.10 1018.93 1018.75 1018.53 1018.26 1017.58 1017.57 1018.02 1017.80 1017.41 1016.55 1015.83 1013.63 1013.07 1012.84 1012.33 1011.36 1011.02 1010.18 1011.18 1011.64 1011.21 1010.52 1010.31 1010.53 1010.63 1009.98 1007.96 1005.16 1003.94 1003.52 1003.36 1003.12 1001.75 1001.40 1001.74 1000.85 999.49 998.18
1019.28 1019.12 1019.20 1019.13 1018.97 1018.90 1018.98 1018.85 1018.75 1018.65 1018.55 1018.43 1018.10 1017.62 1017.80 1018.29 1018.06 1017.30 1016.47 1014.87 1013.69 1013.65 1013.50 1013.08 1012.32 1011.37 1011.23 1011.32 1011.53 1011.04 1010.03 1010.28 1010.59 1010.80 1010.61 1009.04 1006.82 1004.04 1003.41 1002.91 1002.24 1002.15 1001.56 1000.87 1000.30 999.28 997.72
1018.86 1018.65 1018.56 1018.40 1018.32 1018.29 1018.43 1018.49 1018.43 1018.30 1018.25 1018.38 1018.03 1017.59 1018.29 1018.33 1018.20 1017.16 1016.24 1014.67 1014.20 1014.15 1014.23 1013.90 1013.14 1012.58 1012.15 1011.97 1011.82 1011.14 1010.23 1010.11 1010.34 1010.38 1010.36 1009.85 1008.41 1004.97 1003.73 1002.47 1001.79 1001.68 1000.99 1000.75 1000.45 1000.00 998.78
1018.70 1018.42 1017.97 1017.72 1017.64 1017.61 1017.82 1017.99 1018.10 1018.02 1018.22 1018.33 1017.93 1017.79 1018.44 1018.46 1017.99 1017.47 1016.37 1015.31 1015.08 1014.34 1014.55 1014.20 1013.95 1013.41 1012.78 1012.29 1011.87 1011.27 1010.33 1009.90 1010.42 1010.62 1010.33 1009.97 1008.83 1005.97 1003.89 1002.40 1002.48 1002.23 1001.45 1000.73 1000.00 1000.02 999.16
1018.93 1018.47 1017.96 1017.58 1017.42 1017.18 1017.22 1017.35 1017.36 1017.66 1017.96 1018.15 1018.22 1017.87 1018.14 1018.24 1017.84 1017.10 1015.92 1015.51 1015.13 1014.70 1014.47 1014.29 1013.81 1013.41 1013.14 1012.76 1012.17 1010.63 1010.32 1010.30 1010.59 1010.81 1010.84 1010.96 1009.32 1006.50 1003.36 1003.04 1003.00 1002.32 1001.66 1001.40 1000.62 1000.27 999.39
1019.51 1019.10 1018.53 1018.01 1017.70 1017.23 1016.89 1016.97 1017.13 1017.12 1017.43 1018.25 1018.58 1018.42 1018.27 1018.02 1017.70 1017.36 1016.38 1015.46 1014.90 1014.59 1014.42 1014.32 1013.93 1013.66 1013.37 1012.74 1012.18 1011.13 1010.68 1010.44 1010.89 1010.97 1011.21 1011.40 1010.08 1008.24 1005.92 1004.52 1004.34 1003.17 1002.41 1001.89 1001.17 1000.19 999.02
1019.58 1019.09 1018.73 1018.12 1017.74 1017.46 1016.88 1016.50 1016.41 1016.80 1017.39 1017.88 1018.83 1018.43 1018.67 1018.25 1017.90 1017.33 1017.21 1016.26 1015.23 1014.71 1014.72 1014.50 1014.01 1013.70 1013.45 1012.98 1011.85 1011.27 1010.83 1010.74 1010.56 1011.10 1011.41 1011.40 1009.96 1008.49 1006.80 1005.50 1004.70 1003.89 1003.10 1002.45 1001.64 1000.68 999.59
1020.01 1019.52 1019.08 1018.72 1018.50 1017.98 1017.54 1017.27 1016.66 1016.37 1016.93 1017.49 1017.86 1018.75 1019.16 1018.61 1018.16 1017.71 1017.16 1016.23 1015.57 1014.75 1014.62 1014.11 1014.01 1013.45 1013.59 1013.23 1012.50 1011.96 1011.50 1011.26 1011.23 1011.18 1011.52 1011.41 1010.10 1009.03 1007.45 1006.08 1004.93 1003.61 1002.76 1002.12 1001.38 1000.74 999.99
1020.25 1019.97 1019.68 1019.18 1018.81 1018.61 1018.02 1017.67 1017.45 1016.99 1016.79 1017.26 1017.77 1018.53 1018.26 1018.08 1017.90 1017.78 1016.36 1015.69 1015.16 1014.71 1014.14 1013.49 1013.43 1013.56 1013.00 1012.66 1012.62 1012.05 1011.57 1011.42 1011.41 1011.56 1011.57 1011.48 1010.55 1009.43 1007.17 1005.97 1004.85 1003.20 1001.88 1001.02 1000.54 1000.27 999.82
1020.19 1019.91 1019.55 1019.11 1018.89 1018.80 1018.37 1017.89 1017.52 1017.25 1017.00 1017.22 1017.55 1017.69 1018.37 1017.21 1016.86 1016.68 1015.63 1015.28 1014.91 1014.42 1014.17 1013.78 1013.36 1013.48 1012.70 1013.01 1012.80 1012.07 1011.68 1011.07 1010.82 1010.32 1010.93 1011.04 1010.70 1009.82 1007.84 1007.02 1004.83 1002.29 1001.66 1001.29 1001.01 1000.73 1000.32
1020.15 1019.81 1019.47 1019.07 1018.79 1018.58 1018.40 1018.22 1018.04 1017.52 1017.13 1016.90 1017.27 1017.41 1016.90 1016.41 1016.01 1015.54 1015.25 1014.88 1014.38 1014.03 1014.01 1013.64 1013.26 1012.91 1013.32 1013.59 1013.03 1011.80 1010.71 1010.54 1009.62 1009.77 1010.53 1011.01 1010.99 1009.83 1008.57 1006.88 1004.45 1003.17 1003.10 1003.01 1002.58 1002.48 1002.10
1020.39 1020.10 1019.63 1019.12 1018.68 1018.33 1018.19 1018.14 1017.90 1017.70 1017.51 1017.21 1017.11 1017.14 1017.06 1016.32 1014.83 1014.82 1014.74 1014.59 1014.42 1013.96 1013.75 1013.53 1013.72 1013.96 1013.97 1013.71 1012.87 1011.79 1010.57 1010.04 1009.61 1009.69 1010.57 1011.01 1010.97 1010.61 1008.98 1007.50 1005.46 1004.40 1004.18 1004.08 1003.86 1003.80 1003.94
1020.27 1019.99 1019.59 1019.32 1018.96 1018.62 1018.36 1018.09 1017.70 1017.39 1017.51 1017.58 1017.15 1017.26 1017.10 1016.16 1015.07 1014.95 1014.75 1014.66 1014.48 1014.44 1014.16 1014.03 1014.18 1014.38 1014.45 1013.46 1012.67 1011.58 1010.66 1010.47 1009.74 1009.31 1010.00 1010.57 1010.68 1010.03 1008.98 1007.74 1006.27 1005.39 1004.91 1004.80 1005.28 1006.28 1005.40
1020.31 1019.89 1019.34 1018.94 1018.58 1018.28 1018.15 1017.88 1017.55 1017.32 1017.00 1017.26 1016.93 1017.03 1017.02 1016.32 1015.22 1014.85 1014.68 1014.58 1014.53 1014.56 1014.29 1014.41 1014.72 1014.45 1014.26 1013.50 1012.37 1011.17 1010.72 1009.96 1009.80 1009.13 1009.35 1009.58 1009.76 1009.55 1009.15 1008.20 1007.27 1006.49 1005.70 1006.44 1007.24 1007.01 1006.49
1019.77 1019.38 1019.05 1018.74 1018.22 1017.90 1017.65 1017.26 1016.95 1016.83 1016.67 1016.50 1016.66 1016.47 1016.68 1016.50 1015.15 1014.59 1014.23 1014.06 1014.04 1013.83 1014.20 1014.30 1014.24 1013.94 1013.59 1013.15 1012.47 1011.59 1010.81 1010.30 1009.80 1009.24 1009.73 1009.69 1009.48 1009.43 1009.26 1008.35 1007.86 1007.70 1007.99 1008.34 1008.18 1007.74 1007.04
Wind_Speed
12 13 13 13 14 14 14 15 14 14 12 10 10 11 10 9 9 8 8 7 6 5 6 6 6 3 5 7 12 8 8 6 7 6 8 9 11 12 17 14 15 21 26 25 26 23 21
13 13 13 13 13 14 14 15 15 15 14 12 9 9 10 10 10 9 8 8 7 7 7 7 7 5 8 12 5 6 8 7 8 8 10 9 9 11 15 19 18 17 22 23 24 27 25
13 13 13 13 13 13 14 14 14 15 15 15 11 8 9 10 10 10 9 9 9 8 7 8 8 8 10 15 2 6 8 9 8 9 13 12 12 12 7 13 19 20 23 24 26 27 26
11 11 12 13 13 14 14 14 14 15 15 17 13 9 8 10 9 9 9 9 9 9 7 6 6 6 7 2 4 7 8 9 11 11 13 12 13 14 14 8 11 19 22 21 23 26 27
11 11 11 12 13 13 13 13 14 14 15 16 14 10 8 10 9 9 9 9 9 9 6 3 4 5 8 6 6 5 5 8 8 10 11 7 5 3 1 7 12 15 18 24 26 21 21
11 11 11 11 12 13 13 14 15 15 15 15 15 12 11 10 8 8 10 8 3 5 4 4 5 6 8 4 4 3 4 6 6 5 7 6 2 4 5 7 15 15 17 21 23 21 23
11 11 11 12 12 12 13 14 15 15 16 16 17 14 12 12 7 7 8 4 5 6 10 10 6 5 3 3 3 6 2 5 6 8 9 11 9 14 14 21 22 21 24 24 22 24 17
9 10 9 10 11 13 13 13 14 15 16 17 18 17 12 9 6 5 6 5 5 4 11 17 16 14 10 3 5 6 5 4 6 10 10 8 18 21 18 20 19 22 24 28 27 24 13
11 11 10 11 11 13 13 13 14 15 15 16 17 16 11 9 7 4 4 5 1 4 7 3 5 5 3 8 5 7 9 4 5 12 14 17 14 4 10 17 20 21 22 25 24 19 16
11 12 11 13 13 13 13 13 14 15 14 13 15 15 10 9 6 2 2 2 2 4 5 5 4 3 4 3 5 5 8 5 5 8 14 17 15 13 13 16 17 19 24 25 22 16 5
13 14 14 14 15 12 13 13 14 15 14 13 14 15 8 3 7 3 3 1 2 4 6 4 4 3 3 6 2 9 7 7 10 11 6 12 13 12 12 12 9 14 14 15 18 11 10
14 12 13 15 15 13 13 14 14 13 13 13 14 15 8 4 3 4 2 1 4 3 7 4 4 3 4 7 4 4 6 7 8 10 14 28 24 21 11 7 8 7 8 13 15 4 6
15 14 15 15 14 13 13 14 14 13 14 14 15 13 5 2 3 3 2 3 3 6 3 1 2 4 5 5 5 8 6 6 5 5 3 17 13 13 11 14 8 3 3 3 6 5 1
17 16 16 16 15 13 13 14 14 12 13 13 14 7 2 3 3 2 4 2 5 2 3 2 2 7 6 4 6 6 5 7 13 11 9 7 6 4 2 7 9 12 5 5 6 5 4
18 18 18 17 16 15 14 14 13 12 12 11 13 1 1 4 3 3 4 4 4 4 3 8 10 5 5 3 3 5 8 4 1 8 5 6 6 5 9 10 8 5 4 4 6 6 4
18 19 18 18 17 15 14 14 11 10 10 10 6 3 2 5 4 5 2 5 4 4 5 3 5 2 4 2 3 2 4 3 1 1 2 5 10 8 5 7 12 10 8 3 3 6 5
16 16 18 18 17 15 14 12 11 10 8 5 3 4 4 4 3 3 4 5 4 3 3 3 5 6 5 4 2 3 5 2 3 3 5 5 6 6 7 5 7 4 5 5 3 3 5
13 13 14 15 14 14 14 14 11 9 2 4 2 4 3 3 3 1 4 3 4 4 1 3 4 5 5 6 5 5 5 3 3 0 4 3 6 9 17 13 3 8 12 9 4 3 2
17 18 16 12 12 12 15 14 12 10 7 3 1 3 2 3 3 3 5 5 4 3 4 3 4 7 1 4 7 8 5 2 2 1 2 3 5 8 5 5 4 7 6 10 7 5 6
17 18 16 17 19 15 12 11 11 13 11 3 2 2 2 3 1 4 4 7 4 6 5 4 5 4 5 7 11 7 5 2 1 5 4 3 5 12 13 9 9 9 12 8 11 8 7
15 14 15 16 16 17 17 10 11 10 16 4 1 4 2 3 5 4 1 2 5 4 5 3 4 10 7 6 11 13 13 7 6 1 4 4 8 15 19 21 20 19 18 17 14 14 12
15 14 15 16 18 16 15 17 17 9 15 2 4 3 2 2 2 4 5 5 4 5 5 5 7 10 5 9 10 13 13 12 8 3 4 3 5 10 15 19 21 24 23 20 22 20 19
12 13 14 14 14 15 14 15 15 9 10 2 2 2 2 4 4 4 5 7 7 5 7 13 10 10 11 14 13 17 16 13 13 9 5 5 4 4 11 10 10 13 21 23 21 20 18
11 11 11 10 10 13 12 12 12 12 5 1 1 3 3 5 7 7 5 8 15 15 12 9 8 10 5 5 9 12 13 16 17 20 14 9 6 4 7 7 11 5 6 8 13 16 18
11 11 12 11 11 11 11 11 11 11 9 2 2 3 3 5 5 8 12 12 12 13 10 7 15 14 4 5 4 6 5 4 8 10 12 11 7 4 5 8 15 19 6 5 4 4 9
15 15 14 12 11 11 12 11 8 8 9 5 2 1 2 3 8 4 4 2 8 6 3 5 0 4 4 3 4 5 6 4 4 3 2 5 7 7 5 5 4 5 5 6 4 3 9
15 16 15 15 15 15 15 14 13 10 10 6 3 2 3 5 8 11 8 7 3 1 5 3 2 3 4 4 6 7 7 0 5 5 5 3 4 12 11 6 6 7 11 6 5 4 9
15 15 15 15 14 13 14 15 15 13 10 4 4 5 3 3 8 8 10 10 8 5 9 1 2 5 4 6 4 4 5 6 4 2 3 6 4 5 5 5 7 12 2 4 5 7 10
14 15 15 16 15 14 14 13 13 14 12 5 5 2 3 4 6 11 14 17 18 11 4 4 4 3 3 4 3 3 4 3 4 6 1 5 4 1 5 3 6 5 5 1 4 4 3
Wind_Direction
24 23 21 19 15 13 13 13 12 6 354 337 333 334 323 313 304 295 289 289 287 275 276 287 282 269 235 245 256 129 172 158 182 218 249 264 269 274 262 266 274 259 265 266 268 269 266
17 15 15 15 15 10 9 9 6 4 1 346 323 326 326 310 301 290 280 276 267 262 267 269 266 190 247 257 99 174 190 193 236 231 260 253 260 278 286 266 261 266 275 271 259 260 260
11 11 11 8 9 8 7 6 4 359 357 353 330 312 323 311 296 286 272 260 257 255 252 266 258 220 259 255 170 187 201 227 252 256 267 268 265 263 279 277 261 272 268 269 255 255 256
5 6 3 3 3 2 3 4 358 357 355 353 341 317 315 315 296 282 276 268 259 258 254 292 230 237 256 110 247 217 237 243 251 254 255 269 279 270 260 277 286 276 268 262 260 245 243
355 359 359 356 356 357 355 357 351 352 354 354 351 326 314 320 303 291 281 271 263 251 243 258 211 229 263 123 217 218 226 248 278 260 256 275 289 240 252 236 266 245 260 262 266 243 240
345 347 350 350 349 349 348 349 346 345 349 353 358 337 318 320 304 303 289 274 266 233 218 230 247 251 218 224 148 197 210 233 246 265 233 206 187 229 224 215 252 267 253 254 263 265 252
338 339 343 344 343 342 342 342 338 340 346 350 350 341 323 322 303 316 295 226 215 203 218 216 203 255 161 122 198 194 198 217 228 235 238 187 229 233 233 235 246 267 277 274 271 273 302
326 325 332 336 336 336 331 332 334 339 344 346 345 346 331 335 326 315 279 270 3 348 291 227 249 258 268 265 255 192 185 209 222 241 220 241 248 252 249 258 255 263 271 265 272 278 235
316 317 326 327 324 322 325 324 330 334 340 344 346 348 336 326 323 257 286 318 348 295 267 196 203 240 198 204 248 191 194 174 261 260 246 244 255 225 252 251 259 248 251 264 272 293 269
310 312 317 317 317 320 321 322 329 331 333 339 343 347 334 324 267 358 303 54 305 290 280 175 193 137 167 233 260 162 210 198 217 266 265 267 274 264 258 255 240 247 242 247 265 270 302
304 305 312 309 309 310 311 319 320 328 329 333 340 342 328 332 320 281 25 322 265 245 292 121 145 95 152 227 19 196 188 177 243 261 303 264 290 282 253 246 192 239 246 257 250 246 287
287 287 289 294 298 302 307 312 312 320 324 328 335 337 319 219 238 25 301 239 247 235 247 144 149 197 205 197 219 122 207 233 275 282 246 258 268 286 255 268 181 265 248 242 253 247 238
275 276 281 285 289 297 303 305 310 313 325 328 332 332 291 308 354 338 257 221 273 241 86 210 231 189 224 218 216 199 207 220 243 284 301 306 279 239 256 279 176 169 268 204 213 210 324
266 271 274 278 280 286 290 299 306 311 319 322 331 312 75 358 313 240 221 214 228 180 339 36 262 245 241 173 217 215 246 262 226 244 290 292 316 233 76 290 308 302 303 356 320 333 13
260 262 265 270 277 278 281 288 298 309 319 329 315 294 254 17 317 250 219 233 274 354 330 331 298 260 233 169 252 240 224 273 107 201 260 311 269 306 276 293 293 353 309 334 279 237 271
260 256 257 261 263 266 272 285 286 301 317 344 316 289 41 335 309 247 232 262 292 348 323 290 287 0 302 59 267 218 282 114 116 213 234 314 284 289 305 284 242 257 334 287 300 325 317
285 269 262 257 256 255 259 269 272 289 315 345 281 280 58 332 285 237 245 266 305 34 330 298 308 297 288 296 248 269 274 164 163 160 197 270 255 283 303 229 309 227 253 235 284 276 323
343 321 290 274 264 249 247 253 259 271 307 269 292 278 39 303 250 250 261 300 345 295 234 269 277 266 260 301 276 256 262 219 127 225 284 350 298 282 269 284 316 283 282 290 285 26 311
9 14 5 331 298 255 252 245 234 247 188 281 257 276 128 259 247 222 240 265 255 252 246 221 264 230 269 272 288 266 275 72 193 251 267 12 261 299 264 147 190 264 275 258 294 284 273
3 3 6 18 15 2 282 255 240 239 173 107 136 267 187 207 268 279 277 265 247 208 260 247 276 262 266 266 242 277 271 281 263 247 165 143 256 258 275 305 306 305 325 290 268 264 250
1 359 3 11 13 12 6 311 259 235 168 134 204 231 120 221 233 210 309 296 275 268 230 219 259 238 259 279 288 256 272 280 265 244 232 236 264 267 271 276 280 278 275 274 270 266 260
3 0 359 2 8 3 1 4 18 324 165 142 161 204 80 292 281 202 194 223 252 268 217 227 234 265 264 242 249 298 308 291 281 238 245 222 271 295 281 277 269 268 263 256 255 254 259
358 359 1 357 357 359 357 2 11 43 153 236 86 37 127 175 174 211 202 228 247 269 245 259 266 282 264 257 273 275 280 264 256 251 242 236 256 260 276 298 312 273 247 244 244 241 243
350 348 348 351 354 355 347 356 1 6 213 278 143 141 161 250 194 217 218 235 270 273 266 264 287 257 305 319 284 264 254 257 260 257 236 245 229 238 278 300 254 319 339 326 250 266 259
348 344 344 344 337 336 341 347 349 344 344 259 162 184 185 243 222 220 241 250 260 267 255 257 274 271 328 289 273 274 236 254 256 243 234 223 246 262 260 255 297 306 29 12 338 64 15
347 342 333 326 330 341 338 324 312 330 333 313 251 221 230 286 227 278 283 224 285 257 217 230 347 330 207 253 233 248 268 343 268 189 131 244 231 255 217 250 271 62 24 357 321 227 28
342 341 337 329 336 331 323 319 320 308 307 314 310 230 302 285 297 282 273 292 174 284 269 253 227 197 220 220 245 247 248 182 253 246 174 181 203 227 235 254 276 16 326 319 263 49 6
334 333 333 322 323 315 313 319 323 316 302 269 276 201 244 251 284 262 261 271 265 239 258 119 267 194 194 233 244 212 240 201 268 285 204 207 211 199 207 232 248 2 74 339 45 8 3
321 328 330 323 321 322 313 309 304 301 301 280 265 187 219 247 269 291 276 279 269 254 259 184 289 159 235 229 237 297 231 213 264 273 217 244 233 291 222 243 6 11 26 83 324 223 282